COSMOS 1275 DEB

Satellite information

Favourite Embed

Satellite Type and Status

DEBRISIN ORBIT

Key statistics

Satellite COSMOS 1275 DEB at a glance.

Uptime

16167

Days in orbit

Revolutions

≈ 14.2

Per day

Orbit

LEO

Low Earth Orbit

Inclination

82.8

Latest

Satellite identification and parameters

Extended collection of information and parameters for COSMOS 1275 DEB.

Object identification

Identified? True

Debris? True

Object name: COSMOS 1275 DEB

International designator: 1981-053FV

Object number (NORAD): 13473

Object ID (CCSDS): 13473

Country: COMMONWEALTH OF INDEPENDENT STATES (CIS)

Current information (Y/N): Y

RCS size: SMALL

Orbital parameters

Period: 101.145 minutes

Inclination: 82.8341 deg

SMA: 7191.028 km

Apoapsis: 842.734 km

Periapsis: 783.051 km

RAAN: 204.1276 deg

Eccentricy: 0.00414987

Argument of periapsis: 170.6687 deg

Mean anomaly: 252.3692 deg

Mean motion: 14.2369294 rev/day

Mean motion (dot): 0.000036 rev/day2

B* drag term: 0.001557009 1/REarth

Two-line elements (TLE)

Creation date: Sept. 8, 2025, 3:16 a.m.

Reference frame: TEME

Reference center: EARTH

Epoch: Sept. 7, 2025, 9:49 p.m. UTC

TLE line 0: 0 COSMOS 1275 DEB

TLE line 1: 1 13473U 81053FV 25250.90926756 .00003600 00000-0 15570-2 0 9992

TLE line 2: 2 13473 82.8341 204.1276 0041499 170.6687 252.3692 14.23692940207637

Live tracking on map

Real-time ground track for satellite COSMOS 1275 DEB.

In-orbit conjunctions

A list of the most updated potential collisions computed for object COSMOS 1275 DEB.

Target Orbit TCA Probability of collision Miss distance Type
FENGYUN 1C DEB SSO 2024-10-11 05:35:18 0.0001321698 109.0 (m) DEBRIS
FENGYUN 1C DEB SSO 2024-10-05 16:08:15 0.0001118744 189.0 (m) DEBRIS
SL-8 R/B LEO 2024-05-31 12:02:17 0.0002470892 382.0 (m) ROCKET BODY

Associated space launch

Navigation satellite providing location information for the Tsiklon-B navigation system

COSMOS 1275 DEB was lifted into orbit during the mission ‘Kosmos-3M | Parus 27’, on board a Kosmos-3M space rocket.

The launch took place on June 4, 1981, 3:41 p.m. from 132/2.

For more information about the launch, click the button.

Launch to space Kosmos-3M | Parus 27
Kosmos-3M | Parus 27

Agency: N/A

Status: Launch Successful

Launch date: June 4, 1981, 3:41 p.m. UTC

Rocket: Kosmos-3M

Launch pad: 132/2

Location: Plesetsk Cosmodrome, Russian Federation

...

Latest news about this satellite

There are no fresh news available about this satellite. Check back as we update our databases every day.


Newsletter sign-up

Weekly statistics, charts and insights to help you stay on top of the space industry.